Location: Arboyeti
(42.1122°N, 44.6017°E)
Time: 16:36:33
(UTC+00:00)

Cosmos 1980 - Pass Details

Date: 19 April 2021
Orbit: 838 x 848 km, 71.0° (Epoch: 06 May)

Event Time Altitude Azimuth Distance (km) Brightness Sun altitude
Rises 18:35:13 0° 329° (NNW) 3,417 8.1 -26.9°
Reaches altitude 10° 18:37:45 10° 323° (NW) 2,478 7.1 -27.2°
Maximum altitude 18:43:07 44° 253° (WSW) 1,160 4.5 -27.8°
Enters shadow 18:43:56 41° 230° (SW) 1,208 4.4 -27.9°
